EW8829 Weather Reports


Display with metric or nautical units.
time (UTC)temp
F
wind
direction
speed
MPH
gust
MPH
rain 1hr
in
rain 24hr
in
rain mn
in
humidity
%
barometer
mb
20260509103251 42 63 2.0 2.0 0.07 0.06 0.06 99 1008.7
20260509102749 42 49 2.0 3.0 0.07 0.06 0.06 99 1008.7
20260509102246 42 89 3.0 3.0 0.05 0.05 0.05 99 1008.7
20260509101743 42 92 1.0 2.0 0.05 0.04 0.04 99 1008.8
20260509101239 42 97 1.0 2.0 0.02 0.04 0.04 99 1008.7
20260509100736 42 87 2.0 2.0 0.02 0.04 0.04 99 1008.4
20260509100233 42 45 2.0 3.0 0.05 0.04 0.04 99 1008.4
20260509095730 42 62 2.0 3.0 0.02 0.03 0.03 99 1008.3
20260509095227 41 59 2.0 2.0 0.00 0.03 0.03 99 1008.6
20260509094724 41 84 2.0 2.0 0.00 0.03 0.03 99 1008.6
20260509094221 41 81 2.0 2.0 0.00 0.03 0.03 99 1008.3
20260509093719 41 56 3.0 3.0 0.00 0.03 0.03 99 1008.2
20260509093216 41 38 3.0 3.0 0.00 0.03 0.03 99 1008.2
20260509092714 41 82 2.0 2.0 0.00 0.03 0.03 99 1008.6
20260509092212 41 72 1.0 2.0 0.00 0.03 0.03 99 1008.6
20260509091710 41 73 2.0 2.0 0.00 0.03 0.03 99 1008.5
20260509091205 41 62 2.0 2.0 0.00 0.03 0.03 99 1008.6
20260509090704 41 75 2.0 3.0 0.02 0.03 0.03 99 1008.5
20260509090200 41 57 1.0 2.0 0.02 0.03 0.03 99 1008.5
20260509085658 41 73 2.0 3.0 0.02 0.02 0.02 99 1008.5
20260509085154 41 69 2.0 2.0 0.02 0.02 0.02 99 1008.8
20260509084652 41 53 2.0 2.0 0.00 0.02 0.02 99 1008.8
20260509084148 41 78 2.0 2.0 0.00 0.02 0.02 99 1008.9
20260509083646 41 78 2.0 3.0 0.00 0.02 0.02 99 1008.7
20260509083142 41 60 2.0 3.0 0.00 0.02 0.02 99 1008.5
20260509082640 41 86 2.0 2.0 0.00 0.02 0.02 99 1008.8
20260509082136 41 89 0.0 2.0 0.02 0.02 0.02 99 1009.0
20260509081633 41 86 2.0 2.0 0.02 0.02 0.02 99 1008.8
20260509081131 41 34 0.0 1.0 0.00 0.02 0.02 99 1008.9
20260509080629 41 57 2.0 2.0 0.00 0.02 0.02 99 1008.9
20260509080126 41 50 1.0 2.0 0.00 0.02 0.02 99 1009.3
20260509075624 41 55 2.0 2.0 0.00 0.02 0.02 98 1009.3
20260509075121 41 61 2.0 2.0 0.00 0.02 0.02 98 1009.3
20260509074618 41 62 2.0 2.0 0.00 0.02 0.02 98 1009.2
20260509074115 41 87 1.0 2.0 0.00 0.02 0.02 98 1009.0
20260509073611 41 54 2.0 2.0 0.00 0.02 0.02 98 1009.0
20260509073108 41 56 2.0 2.0 0.00 0.02 0.02 98 1009.2
20260509072605 41 84 2.0 3.0 0.00 0.02 0.02 98 1009.0
20260509072101 41 61 1.0 2.0 0.00 0.02 0.02 98 1008.9
20260509071558 41 57 2.0 3.0 0.00 0.02 0.02 97 1008.9
20260509071055 41 79 2.0 2.0 0.02 0.02 0.02 97 1008.8
20260509070553 41 73 2.0 2.0 0.02 0.02 0.02 97 1008.8
20260509070049 41 59 2.0 2.0 0.00 0.01 0.01 96 1009.0
20260509065544 41 52 2.0 2.0 0.00 0.01 0.01 96 1009.0
20260509065041 41 67 2.0 2.0 0.00 0.01 0.01 96 1009.0
20260509064539 41 64 2.0 2.0 0.00 0.01 0.01 96 1009.1
20260509064037 41 67 2.0 2.0 0.02 0.01 0.01 95 1009.2
20260509063531 41 44 2.0 2.0 0.02 0.01 0.01 95 1009.3
20260509063029 41 54 2.0 2.0 0.00 0.01 0.01 95 1009.3
20260509062526 41 41 1.0 2.0 0.02 0.01 0.01 94 1009.3
20260509062024 41 62 2.0 2.0 0.02 0.01 0.01 94 1009.5
20260509061520 41 56 2.0 3.0 0.00 0.00 0.00 93 1009.5
20260509061018 41 52 2.0 2.0 0.02 0.00 0.00 93 1009.8
20260509060515 41 72 2.0 2.0 0.02 0.00 0.00 93 1009.5
20260509060011 41 65 2.0 2.0 0.00 0.00 0.00 92 1009.6
20260509055506 41 63 2.0 2.0 0.00 0.00 0.00 92 1009.7
20260509055003 41 27 1.0 2.0 0.00 0.00 0.00 92 1009.8
20260509054459 41 61 2.0 3.0 0.00 0.00 0.00 92 1009.7
20260509053957 41 50 2.0 3.0 0.00 0.00 0.00 91 1009.8
20260509053455 41 43 3.0 3.0 0.00 0.00 0.00 91 1009.9
20260509052952 41 40 2.0 2.0 0.00 0.00 0.00 91 1009.7
20260509052450 41 65 2.0 3.0 0.00 0.00 0.00 92 1009.8
20260509051947 41 72 2.0 2.0 0.00 0.00 0.00 92 1009.8
20260509051445 41 55 2.0 2.0 0.00 0.00 0.00 92 1009.8
20260509050942 41 55 2.0 2.0 0.00 0.00 0.00 92 1009.7
20260509050438 41 55 2.0 2.0 0.00 0.00 0.00 92 1009.8
20260509045935 41 41 2.0 3.0 0.00 0.00 0.00 91 1009.6
20260509045432 41 45 2.0 3.0 0.00 0.00 0.00 91 1009.6
20260509044929 41 41 2.0 3.0 0.00 0.00 0.00 91 1009.9
20260509044427 41 61 2.0 3.0 0.00 0.00 0.00 90 1009.9
20260509043924 41 74 2.0 3.0 0.00 0.00 0.00 90 1009.9
20260509043419 41 42 2.0 2.0 0.00 0.00 0.00 91 1009.8
20260509042915 41 67 2.0 3.0 0.00 0.00 0.00 91 1010.0
20260509042413 41 65 2.0 2.0 0.00 0.00 0.00 91 1009.9
20260509041909 41 44 2.0 2.0 0.00 0.00 0.00 92 1010.2
20260509041406 41 60 2.0 2.0 0.00 0.00 0.00 93 1010.4
20260509040904 41 57 2.0 2.0 0.00 0.00 0.00 92 1010.0
20260509040402 41 92 2.0 3.0 0.00 0.00 0.00 92 1010.2
20260509035859 41 86 2.0 2.0 0.00 0.00 0.00 91 1010.0
20260509035356 41 74 2.0 2.0 0.00 0.00 0.00 91 1010.2
20260509034852 40 60 2.0 2.0 0.00 0.00 0.00 91 1010.1
20260509034350 40 78 2.0 2.0 0.00 0.00 0.00 90 1010.1
20260509033847 41 73 2.0 2.0 0.00 0.00 0.00 90 1010.0
20260509033344 41 48 2.0 2.0 0.00 0.00 0.00 89 1010.2
20260509032840 40 294 1.0 2.0 0.00 0.00 0.00 90 1010.0
20260509032337 40 30 1.0 2.0 0.00 0.00 0.00 91 1010.0
20260509031836 40 83 2.0 2.0 0.00 0.00 0.00 90 1010.0
20260509031332 40 85 2.0 2.0 0.00 0.00 0.00 89 1010.0
20260509030830 40 49 0.0 1.0 0.00 0.00 0.00 89 1010.0
20260509030327 40 67 1.0 2.0 0.00 0.00 0.00 88 1010.0
20260509025824 41 72 2.0 2.0 0.00 0.00 0.00 88 1010.1
20260509025320 41 58 2.0 2.0 0.00 0.00 0.00 88 1010.2
20260509024815 42 61 2.0 3.0 0.00 0.00 0.00 87 1010.2
20260509024312 42 79 1.0 1.0 0.00 0.00 0.00 85 1010.2
20260509023809 42 35 0.0 1.0 0.00 0.00 0.00 86 1010.0
20260509023306 42 13 0.0 1.0 0.00 0.00 0.00 85 1010.0
20260509022802 42 44 0.0 2.0 0.00 0.00 0.00 85 1010.0
20260509022300 43 81 2.0 2.0 0.00 0.00 0.00 84 1010.2
20260509021756 43 7 1.0 1.0 0.00 0.00 0.00 83 1010.1
20260509021254 43 47 1.0 3.0 0.00 0.00 0.00 83 1010.1
20260509020751 44 31 3.0 3.0 0.00 0.00 0.00 83 1010.0
20260509020249 44 84 2.0 2.0 0.00 0.00 0.00 80 1010.0
20260509015747 44 3 1.0 1.0 0.00 0.00 0.00 81 1010.1
20260509015245 45 21 0.0 2.0 0.00 0.00 0.00 79 1010.0
20260509014741 45 74 1.0 2.0 0.00 0.00 0.00 79 1009.9
20260509014238 45 41 2.0 2.0 0.00 0.00 0.00 79 1009.9
20260509013734 45 38 0.0 2.0 0.00 0.00 0.00 78 1010.0
20260509013230 45 63 2.0 3.0 0.00 0.00 0.00 78 1010.1
20260509012727 46 24 1.0 2.0 0.00 0.00 0.00 78 1010.0
20260509012223 46 61 2.0 3.0 0.00 0.00 0.00 78 1009.7
20260509011721 46 100 2.0 2.0 0.00 0.00 0.00 77 1009.9
20260509011219 46 51 2.0 3.0 0.00 0.00 0.00 78 1009.7
20260509010716 46 26 2.0 2.0 0.00 0.00 0.00 78 1009.8
20260509010212 46 84 2.0 3.0 0.00 0.00 0.00 77 1009.5
20260509005710 46 124 0.0 2.0 0.00 0.00 0.00 76 1009.6
20260509005207 46 73 2.0 2.0 0.00 0.00 0.00 75 1009.4
20260509004702 47 26 1.0 2.0 0.00 0.00 0.00 73 1009.4
20260509004159 47 44 0.0 2.0 0.00 0.00 0.00 73 1009.3
20260509003658 47 81 1.0 2.0 0.00 0.00 0.00 71 1009.1
20260509003155 48 52 1.0 2.0 0.00 0.00 0.00 69 1009.2
20260509002652 48 36 1.0 2.0 0.00 0.00 0.00 71 1009.0
20260509002149 49 36 0.0 1.0 0.00 0.00 0.00 70 1009.2
20260509001647 49 72 1.0 2.0 0.00 0.00 0.00 68 1009.2
20260509001142 49 38 0.0 0.0 0.00 0.00 0.00 67 1009.1
20260509000641 49 40 2.0 2.0 0.00 0.00 0.00 65 1008.8
20260509000137 49 45 3.0 3.0 0.00 0.00 0.00 65 1008.9
20260508235635 50 31 1.0 1.0 0.00 0.00 0.00 64 1008.8
20260508235131 50 52 1.0 1.0 0.00 0.00 0.00 63 1008.9
20260508234629 51 59 2.0 2.0 0.00 0.00 0.00 62 1008.9
20260508234125 51 352 0.0 1.0 0.00 0.00 0.00 64 1008.6
20260508233624 51 355 1.0 2.0 0.00 0.00 0.00 64 1008.7
20260508233122 51 358 1.0 2.0 0.00 0.00 0.00 63 1008.7
20260508232618 51 24 1.0 2.0 0.00 0.00 0.00 63 1008.5
20260508232115 51 350 0.0 2.0 0.00 0.00 0.00 62 1008.4
20260508231613 52 31 2.0 2.0 0.00 0.00 0.00 61 1008.5
20260508231109 52 12 0.0 0.0 0.00 0.00 0.00 61 1008.7
20260508230606 52 315 0.0 1.0 0.00 0.00 0.00 61 1008.4
20260508225601 55 60 0.0 1.0 0.00 0.00 0.00 46 1008.4
20260508225057 54 94 1.0 2.0 0.00 0.00 0.00 47 1008.6
20260508224555 55 47 2.0 3.0 0.00 0.00 0.00 48 1008.6
20260508224051 54 77 2.0 3.0 0.00 0.00 0.00 49 1008.6
20260508223549 54 48 2.0 2.0 0.00 0.00 0.00 53 1008.6
20260508223046 55 352 0.0 2.0 0.00 0.00 0.00 52 1008.5
20260508222544 56 74 2.0 3.0 0.00 0.00 0.00 49 1008.6
20260508222041 56 31 4.0 4.0 0.00 0.00 0.00 48 1008.6
20260508221537 55 34 2.0 3.0 0.00 0.00 0.00 51 1008.5
20260508221033 55 61 2.0 3.0 0.00 0.00 0.00 50 1008.5
20260508220530 55 38 3.0 4.0 0.00 0.00 0.00 49 1008.8
20260508220026 55 81 3.0 3.0 0.00 0.00 0.00 47 1008.6
20260508215523 55 36 2.0 4.0 0.00 0.00 0.00 49 1008.7
20260508215020 55 31 2.0 2.0 0.00 0.00 0.00 54 1008.6
20260508214517 55 57 2.0 3.0 0.00 0.00 0.00 49 1008.7
20260508214013 54 17 4.0 4.0 0.00 0.00 0.00 48 1008.6
20260508213511 55 70 2.0 3.0 0.00 0.00 0.00 47 1008.6
20260508213006 55 39 2.0 5.0 0.00 0.00 0.00 47 1008.6
20260508212503 55 42 3.0 8.0 0.00 0.00 0.00 50 1008.6
20260508211959 55 12 3.0 3.0 0.00 0.00 0.00 48 1008.8
20260508211455 57 335 0.0 6.0 0.00 0.00 0.00 48 1008.8
20260508210952 56 34 4.0 8.0 0.00 0.00 0.00 47 1008.9
20260508210448 57 7 2.0 5.0 0.00 0.00 0.00 44 1008.7
20260508205945 58 155 2.0 3.0 0.00 0.00 0.00 42 1008.7
20260508205442 57 58 2.0 4.0 0.00 0.00 0.00 44 1008.8
20260508204938 56 31 2.0 4.0 0.00 0.00 0.00 46 1008.9
20260508204436 55 14 4.0 4.0 0.00 0.00 0.00 48 1009.0
20260508203931 56 101 3.0 6.0 0.00 0.00 0.00 47 1009.0
20260508203427 58 330 3.0 6.0 0.00 0.00 0.00 45 1008.9
20260508202923 56 47 2.0 3.0 0.00 0.00 0.00 46 1009.1
20260508202421 55 85 4.0 5.0 0.00 0.00 0.00 48 1009.0
20260508201918 55 67 5.0 5.0 0.00 0.00 0.00 47 1009.1
20260508201414 56 10 5.0 8.0 0.00 0.00 0.00 46 1009.2
20260508200911 57 48 4.0 6.0 0.00 0.00 0.00 45 1009.4
20260508200408 56 42 2.0 7.0 0.00 0.00 0.00 46 1009.2
20260508195903 57 300 5.0 5.0 0.00 0.00 0.00 47 1009.4
20260508195400 55 339 3.0 5.0 0.00 0.00 0.00 50 1009.4
20260508194856 55 258 5.0 6.0 0.00 0.00 0.00 45 1009.5
20260508194354 57 276 1.0 6.0 0.00 0.00 0.00 44 1009.6
20260508193851 56 55 2.0 9.0 0.00 0.00 0.00 46 1009.6
20260508193348 57 356 3.0 6.0 0.00 0.00 0.00 45 1009.7
20260508192844 57 21 2.0 6.0 0.00 0.00 0.00 49 1009.5
20260508192341 56 72 3.0 3.0 0.00 0.00 0.00 54 1009.8
20260508191838 56 58 4.0 5.0 0.00 0.00 0.00 50 1009.8
20260508191335 53 266 9.0 12.0 0.00 0.00 0.00 48 1010.0
20260508190832 55 88 4.0 6.0 0.00 0.00 0.00 47 1009.7
20260508190329 52 321 3.0 7.0 0.00 0.00 0.00 50 1009.9
20260508185825 53 63 6.0 6.0 0.00 0.00 0.00 54 1010.0
20260508185323 51 15 2.0 5.0 0.00 0.00 0.00 53 1010.1
20260508184820 53 285 4.0 9.0 0.00 0.00 0.00 54 1010.1
20260508184317 52 126 2.0 5.0 0.00 0.00 0.00 55 1010.4
20260508183814 53 29 5.0 7.0 0.00 0.00 0.00 54 1010.4
20260508183310 54 6 3.0 6.0 0.00 0.00 0.00 56 1010.6
20260508182806 53 357 2.0 5.0 0.00 0.00 0.00 55 1010.4
20260508182306 50 45 4.0 7.0 0.00 0.00 0.00 57 1010.6
20260508181759 50 44 3.0 4.0 0.00 0.00 0.00 60 1010.5
20260508181256 52 291 11.0 13.0 0.00 0.00 0.00 58 1010.5
20260508180753 52 29 4.0 6.0 0.00 0.00 0.00 62 1010.5
20260508180250 50 27 0.0 6.0 0.00 0.00 0.00 61 1010.8
20260508175746 50 39 4.0 6.0 0.00 0.00 0.00 62 1010.5
20260508175243 50 2 2.0 4.0 0.00 0.00 0.00 64 1010.6
20260508174741 50 17 4.0 6.0 0.00 0.00 0.00 62 1010.6
20260508174238 51 40 4.0 5.0 0.00 0.00 0.00 63 1010.6
20260508173734 50 5 5.0 11.0 0.00 0.00 0.00 66 1010.6
20260508173230 49 146 3.0 12.0 0.00 0.00 0.00 65 1010.8
20260508172727 50 290 3.0 19.0 0.00 0.00 0.00 63 1010.9
20260508172224 49 285 5.0 10.0 0.00 0.00 0.00 66 1010.8
20260508171720 49 55 2.0 3.0 0.00 0.00 0.00 72 1010.7
20260508171217 49 142 3.0 8.0 0.00 0.00 0.00 70 1011.1
20260508170714 50 344 2.0 6.0 0.00 0.00 0.00 67 1010.9
20260508170212 49 290 3.0 4.0 0.00 0.00 0.00 73 1010.8
20260508165708 48 115 4.0 5.0 0.00 0.00 0.00 75 1011.3
20260508165206 48 80 6.0 9.0 0.00 0.00 0.00 77 1011.3
20260508164702 47 13 2.0 4.0 0.00 0.00 0.00 78 1011.2
20260508164159 46 18 3.0 4.0 0.00 0.00 0.00 82 1010.9
20260508163656 46 73 5.0 6.0 0.00 0.00 0.00 80 1011.1
20260508163154 44 104 4.0 8.0 0.00 0.00 0.00 82 1011.3
20260508162649 44 68 4.0 10.0 0.00 0.00 0.00 85 1011.5
20260508162146 45 77 6.0 7.0 0.00 0.00 0.00 85 1011.4
20260508161643 44 119 7.0 9.0 0.00 0.00 0.00 84 1011.5
20260508161141 44 20 3.0 6.0 0.00 0.00 0.00 82 1011.3
20260508160639 43 25 4.0 4.0 0.00 0.00 0.00 84 1011.7
20260508160136 42 20 4.0 5.0 0.00 0.00 0.00 85 1011.4
20260508155628 43 44 4.0 5.0 0.00 0.00 0.00 87 1011.6
20260508155125 42 65 4.0 6.0 0.00 0.00 0.00 85 1011.6
20260508154621 43 33 4.0 4.0 0.00 0.00 0.00 87 1011.5
20260508154118 43 55 3.0 4.0 0.00 0.00 0.00 89 1010.9
20260508153615 43 73 4.0 5.0 0.00 0.00 0.00 89 1010.9
20260508153111 43 70 4.0 5.0 0.00 0.00 0.00 88 1010.9
20260508152609 44 61 3.0 4.0 0.00 0.00 0.00 87 1010.8
20260508152103 44 78 4.0 4.0 0.00 0.00 0.00 87 1010.6
20260508151600 44 53 3.0 5.0 0.00 0.00 0.00 88 1010.7
20260508151057 44 69 3.0 4.0 0.00 0.00 0.00 82 1010.7
20260508150554 45 51 2.0 3.0 0.00 0.00 0.00 81 1010.9
20260508150050 44 45 2.0 3.0 0.00 0.00 0.00 80 1010.6
20260508145547 44 76 3.0 4.0 0.00 0.00 0.00 80 1010.5
20260508145043 44 96 2.0 3.0 0.00 0.00 0.00 85 1010.7
20260508144541 43 63 3.0 3.0 0.00 0.00 0.00 85 1010.8
20260508144038 43 36 2.0 2.0 0.00 0.00 0.00 86 1010.9
20260508143536 43 13 2.0 4.0 0.00 0.00 0.00 85 1010.7
20260508143032 43 39 2.0 2.0 0.00 0.00 0.00 85 1010.9
20260508142529 43 45 3.0 3.0 0.00 0.00 0.00 87 1010.8
20260508142026 42 46 2.0 2.0 0.00 0.00 0.00 88 1010.7
20260508141522 42 81 1.0 2.0 0.00 0.00 0.00 89 1010.9
20260508141021 42 78 3.0 3.0 0.00 0.00 0.00 88 1010.9
20260508140518 42 46 2.0 4.0 0.00 0.00 0.00 87 1010.9
20260508140014 42 64 3.0 4.0 0.00 0.00 0.00 86 1010.9
20260508135509 42 77 1.0 3.0 0.00 0.00 0.00 87 1010.9
20260508135006 42 30 2.0 3.0 0.00 0.00 0.00 86 1010.8
20260508134502 42 51 2.0 4.0 0.00 0.00 0.00 86 1011.2
20260508133959 42 55 3.0 4.0 0.00 0.00 0.00 84 1010.9
20260508133456 42 259 2.0 4.0 0.02 0.00 0.00 85 1010.6
20260508132953 42 24 2.0 3.0 0.02 0.00 0.00 91 1010.5
20260508132451 42 47 2.0 3.0 0.00 0.00 0.00 88 1010.5
20260508131948 43 87 2.0 2.0 0.00 0.00 0.00 89 1010.5
20260508131443 42 64 2.0 3.0 0.00 0.00 0.00 89 1010.1
20260508130940 42 55 2.0 3.0 0.00 0.00 0.00 90 1010.2
20260508130437 42 67 2.0 2.0 0.00 0.00 0.00 87 1010.4
20260508125933 42 80 0.0 2.0 0.00 0.00 0.00 88 1010.3
20260508125430 42 45 2.0 2.0 0.00 0.00 0.00 88 1010.2
20260508124928 42 80 2.0 2.0 0.00 0.00 0.00 89 1010.1
20260508124425 42 107 1.0 3.0 0.00 0.00 0.00 91 1009.9
20260508123922 41 88 2.0 2.0 0.00 0.00 0.00 92 1010.1
20260508123421 41 49 1.0 3.0 0.00 0.00 0.00 92 1010.0
20260508122917 40 99 2.0 3.0 0.00 0.00 0.00 92 1010.3
20260508122414 40 79 1.0 2.0 0.00 0.00 0.00 92 1010.0
20260508121911 40 72 3.0 3.0 0.00 0.00 0.00 93 1010.2
20260508121409 40 60 3.0 4.0 0.00 0.00 0.00 94 1010.3
20260508120906 39 333 0.0 2.0 0.00 0.00 0.00 94 1010.2
20260508120404 39 246 1.0 2.0 0.00 0.00 0.00 95 1010.2
20260508115901 38 22 0.0 2.0 0.00 0.00 0.00 95 1010.2
20260508115359 38 45 1.0 2.0 0.00 0.00 0.00 97 1010.1
20260508114855 38 119 0.0 2.0 0.00 0.00 0.00 99 1010.2
20260508114352 38 67 1.0 2.0 0.00 0.00 0.00 99 1010.1
20260508113849 37 88 2.0 3.0 0.00 0.00 0.00 99 1010.3
20260508113347 37 100 2.0 2.0 0.00 0.00 0.00 99 1010.5
20260508112843 37 38 2.0 3.0 0.00 0.00 0.00 99 1010.6
20260508112341 37 81 2.0 3.0 0.00 0.00 0.00 99 1010.3
20260508111837 36 79 1.0 2.0 0.00 0.00 0.00 99 1010.5
20260508111334 36 86 2.0 3.0 0.00 0.00 0.00 99 1010.5
20260508110831 36 56 2.0 2.0 0.00 0.00 0.00 99 1010.5
20260508110329 36 68 2.0 2.0 0.00 0.00 0.00 99 1010.6
20260508105829 36 41 2.0 3.0 0.00 0.00 0.00 99 1010.6
20260508105325 35 88 2.0 3.0 0.00 0.00 0.00 99 1010.5
20260508104822 35 71 2.0 2.0 0.00 0.00 0.00 99 1010.4
20260508104319 35 22 2.0 3.0 0.00 0.00 0.00 99 1010.1
20260508103816 35 79 2.0 3.0 0.00 0.00 0.00 99 1010.3
20260508103313 35 35 2.0 3.0 0.00 0.00 0.00 99 1010.8